This is the latest recevied weather packets stored in our database for station/object K7KAR-2. If no packets are shown the sender has not sent any weather packets the latest 10 day(s).
| Time | Temp. | Humidity | Pressure | Rain* | Wind** | Luminosity | Snow |
|---|---|---|---|---|---|---|---|
| 1778303255 | 15° C | 15% | 1009.5 hPa | 0 mm | - | 0 W/m² | - |
| 1778302951 | 15° C | 15% | 1009.4 hPa | 0 mm | - | 0 W/m² | - |
| 1778302649 | 15° C | 14% | 1009.4 hPa | 0 mm | - | 0 W/m² | - |
| 1778302346 | 15° C | 15% | 1009.2 hPa | 0 mm | - | 0 W/m² | - |
| 1778302043 | 15° C | 15% | 1009.4 hPa | 0 mm | - | 0 W/m² | - |
| 1778301741 | 15.56° C | 14% | 1009.5 hPa | 0 mm | - | 0 W/m² | - |
| 1778301437 | 15.56° C | 11% | 1009.1 hPa | 0 mm | - | 0 W/m² | - |
| 1778301133 | 15.56° C | 10% | 1009.3 hPa | 0 mm | - | 0 W/m² | - |
| 1778300829 | 15.56° C | 10% | 1009.2 hPa | 0 mm | - | 0 W/m² | - |
| 1778300525 | 15.56° C | 10% | 1009.1 hPa | 0 mm | - | 0 W/m² | - |
| 1778300222 | 15.56° C | 10% | 1009.2 hPa | 0 mm | - | 0 W/m² | - |
| 1778299919 | 16.11° C | 10% | 1008.9 hPa | 0 mm | - | 0 W/m² | - |
| 1778299618 | 16.11° C | 10% | 1009.1 hPa | 0 mm | - | 0 W/m² | - |
| 1778299314 | 16.11° C | 10% | 1008.9 hPa | 0 mm | - | 0 W/m² | - |
| 1778299011 | 15.56° C | 10% | 1008.9 hPa | 0 mm | - | 0 W/m² | - |
| 1778298708 | 16.11° C | 10% | 1008.7 hPa | 0 mm | - | 0 W/m² | - |
| 1778298405 | 15.56° C | 10% | 1008.7 hPa | 0 mm | - | 0 W/m² | - |
| 1778298102 | 16.11° C | 10% | 1008.4 hPa | 0 mm | - | 0 W/m² | - |
| 1778297799 | 16.67° C | 10% | 1008.7 hPa | 0 mm | - | 0 W/m² | - |
| 1778297496 | 16.67° C | 10% | 1008.5 hPa | 0 mm | - | 0 W/m² | - |
| 1778297194 | 16.67° C | 10% | 1008.3 hPa | 0 mm | - | 0 W/m² | - |
| 1778296891 | 17.22° C | 10% | 1008.5 hPa | 0 mm | - | 0 W/m² | - |
| 1778296588 | 17.78° C | 10% | 1008.3 hPa | 0 mm | - | 0 W/m² | - |
| 1778296285 | 17.22° C | 10% | 1008.2 hPa | 0 mm | - | 0 W/m² | - |
| 1778295984 | 17.78° C | 10% | 1008.5 hPa | 0 mm | - | 0 W/m² | - |
* Rain latest hour (hover to see other rain measurements)
** Current wind speed in m/s (hover to see current wind gust speed)